STARLINK-32151, 60299

Orbit data source: Space-Track

STARLINK-32151, 60299 is a payload satellite owned by SpaceX/Seattle (US) in LEO that was launched on Sun, 28 Jul 2024 UTC via an FALCON 9 launch vehicle from the Air Force Eastern Test Range (AFETR). Payloads include a variety of satellites, spacecraft, and rockets equipped with specific instruments for various scientific and technological missions. These include communications satellites like Starlink; space stations such as the ISS; scientific satellites like the Hubble; Earth observation satellites from companies like Planet Labs, Umbra, and HawkEye 360; GPS; miniature CubeSats for education and research; and military/defense satellites.

Loading next visibility...
STARLINK-32151 details
Identifier
60299, 2024-132X
Orbit
LEO
Last TLE update10 hours ago
Origin
Flag of USSpaceX/Seattle (US)
ManufacturerSpaceX/Seattle
MissionOperational spacecraft
Bus & MotorSTARLINK V2M, Unknown motor
Mass730 kg wet, ~700 kg dry
Launch date (UTC)
2024-07-28 (6 months ago)
Launch vehicle
FALCON 9
Launch site
Air Force Eastern Test Range (AFETR)
Object type
Payload
Rocket body
Debris
Shape & HBRUnknown
Radar Cross SectionLarge (>1 m²)

Expand to show TLE details & history

TLE from 10 hours ago
0 STARLINK-32151
1 60299U 24132X   25014.91667824  .00115594  00000-0  16286-2 0  9993
2 60299  53.1509 186.9610 0008579 197.1694 154.2778 15.55747620  5717
Epoch: 2025-01-14T22:00Z
Definitive object data (Epoch: 2025-01-14T22:00:00.999Z)
Latitude-6.92309°
Longitude97.14852°
Altitude407.286 km
Speed7.664 km/s
True Right ascension12h 07m 04s
True Declination-6° 52' 48"
Sunlit
Object was in full shadow at TLE epoch
Visualization TLE readout
Latitude37.18251°
Longitude-114.06625°
Altitude400.482 km
Speed7.676 km/s
Apparent Right ascension21h 18m 41s
Apparent Declination0° 01' 37"
Sunlit
Object is in daylight
Visualization observer readout
Local Sidereal Time08:30:34
Azimuth341.64° N
Elevation-48.577°
Doppler factor1
Orbital elements
Apogee altitude406.056 km
Perigee altitude394.426 km
Semi-major axis6,778.378 km
Eccentricity0.0008579
Inclination53.1509°
RAAN186.961°
Arg. of periapsis197.1694°
True anomaly154.32043°
Mean anomaly154.2778°
Eccentric anomaly154.29912°
Mean motion3.88915 °/min
BSTAR0.0016286
Orbital period92.57 mins
Loading maneuver chart data...
Loading historical data...
Loading historical data...
Loading historical data...
Loading historical data...
Loading historical data...
Loading historical data...
Loading historical data...

STARLINK-32151 Visibility forecast

Observer location: undefined°, undefined

Span
Click to sort rows by Start time (UTC) header in descending order
Start Az.
Max El. time (UTC)
Max El. Az.
Max El.
End time (UTC)
End Az.
5 mins2025-01-15 13:36:57.603Z205.586° SW2025-01-15 13:39:57.603Z129.17° SE33.407°2025-01-15 13:41:57.603Z70.289° E
|